EFW5KJ EDDH-EGKK

Flight info

Callsign EFW5KJ
Flight time N/A
Altitude 34000
Route WSN5G/33 WSN N125 ITMIZ DCT GALSO Q63 ARREK Y4 TEBRA
Aircraft A320/M-SDE3FGHIRWY/LB1

Departure

Time 2026-04-23 18:59
Airport Hamburg Helmut Schmidt Airport (EDDH)

Arrival

Time N/A
Airport London Gatwick Airport (EGKK)
Time Latitude Longitude Altitude Speed Heading
2026-04-23 18:15 53.63324 10.00082 51 ft 0 kts 143°
2026-04-23 18:49 53.63333 10.00070 49 ft 2 kts 143°
2026-04-23 18:49 53.63346 10.00054 51 ft 2 kts 143°
2026-04-23 18:49 53.63359 10.00038 44 ft 2 kts 143°
2026-04-23 18:50 53.63367 10.00028 49 ft 2 kts 143°
2026-04-23 18:50 53.63387 10.00012 47 ft 2 kts 183°
2026-04-23 18:50 53.63403 10.00018 46 ft 2 kts 219°
2026-04-23 18:50 53.63404 10.00020 45 ft 0 kts 220°
2026-04-23 18:52 53.63394 10.00000 49 ft 4 kts 227°
2026-04-23 18:52 53.63368 9.99946 51 ft 8 kts 231°
2026-04-23 18:52 53.63327 9.99861 50 ft 11 kts 230°
2026-04-23 18:52 53.63299 9.99805 50 ft 0 kts 230°
2026-04-23 18:53 53.63292 9.99791 50 ft 3 kts 230°
2026-04-23 18:54 53.63259 9.99757 51 ft 7 kts 192°
2026-04-23 18:54 53.63203 9.99782 51 ft 10 kts 154°
2026-04-23 18:54 53.63135 9.99838 50 ft 12 kts 153°
2026-04-23 18:54 53.63054 9.99909 51 ft 14 kts 153°
2026-04-23 18:55 53.62982 9.99972 51 ft 9 kts 152°
2026-04-23 18:55 53.62935 9.99991 51 ft 4 kts 189°
2026-04-23 18:55 53.62926 9.99983 50 ft 2 kts 205°
2026-04-23 18:55 53.62909 9.99953 49 ft 5 kts 236°
2026-04-23 18:56 53.62899 9.99923 50 ft 0 kts 241°
2026-04-23 18:57 53.62886 9.99881 49 ft 7 kts 243°
2026-04-23 18:57 53.62868 9.99781 49 ft 11 kts 276°
2026-04-23 18:58 53.62923 9.99695 50 ft 9 kts 331°
2026-04-23 18:58 53.62925 9.99693 50 ft 0 kts 331°
2026-04-23 18:59 53.62963 9.99659 49 ft 30 kts 332°
2026-04-23 18:59 53.63434 9.99247 51 ft 119 kts 330°
2026-04-23 18:59 53.64275 9.98529 370 ft 137 kts 338°
2026-04-23 18:59 53.65150 9.97846 925 ft 150 kts 329°
2026-04-23 19:00 53.66122 9.97001 1684 ft 166 kts 332°
2026-04-23 19:00 53.67197 9.96067 2393 ft 179 kts 333°
2026-04-23 19:00 53.68342 9.95073 2996 ft 190 kts 334°
2026-04-23 19:00 53.69530 9.94046 3764 ft 193 kts 334°
2026-04-23 19:01 53.70698 9.92912 4563 ft 196 kts 321°
2026-04-23 19:01 53.71452 9.90944 4935 ft 212 kts 288°
2026-04-23 19:01 53.71311 9.88263 5317 ft 248 kts 258°
2026-04-23 19:01 53.70742 9.85413 5889 ft 265 kts 257°
2026-04-23 19:02 53.70340 9.83420 6390 ft 271 kts 257°
2026-04-23 19:02 53.69515 9.79348 7490 ft 277 kts 257°
2026-04-23 19:02 53.68890 9.76249 8343 ft 280 kts 257°
2026-04-23 19:02 53.68262 9.73118 9175 ft 284 kts 257°
2026-04-23 19:03 53.67627 9.69935 9959 ft 289 kts 256°
2026-04-23 19:03 53.66994 9.66758 10200 ft 290 kts 256°
2026-04-23 19:03 53.66342 9.63455 10396 ft 307 kts 256°
2026-04-23 19:03 53.65650 9.59947 10768 ft 324 kts 254°
2026-04-23 19:04 53.65021 9.57582 11099 ft 335 kts 245°
2026-04-23 19:04 53.63702 9.54270 11753 ft 343 kts 238°
2026-04-23 19:04 53.61824 9.49926 12676 ft 348 kts 238°